EW6114 Weather Reports


Display with metric or nautical units.
time (UTC)temp
F
wind
direction
speed
MPH
gust
MPH
rain 1hr
in
rain 24hr
in
rain mn
in
humidity
%
barometer
mb
20260510060425 0 74 0.0 0.0 0.00 0.00 0.00 1075.5
20260510055919 0 75 0.0 0.0 0.00 0.00 0.00 1075.4
20260510055344 0 77 0.0 0.0 0.00 0.00 0.00 1075.5
20260510054834 0 75 0.0 0.0 0.00 0.00 0.00 1075.5
20260510054332 0 74 0.0 0.0 0.00 0.00 0.00 1075.5
20260510053825 0 347 0.0 0.0 0.00 0.00 0.00 1075.4
20260510053323 0 347 0.0 0.0 0.00 0.00 0.00 1075.4
20260510052745 0 92 0.0 0.0 0.00 0.00 0.00 1075.4
20260510052235 0 92 0.0 0.0 0.00 0.00 0.00 1075.4
20260510051730 0 92 0.0 0.0 0.00 0.00 0.00 1075.3
20260510051229 0 92 0.0 0.0 0.00 0.00 0.00 1075.3
20260510050729 0 69 0.0 0.0 0.00 0.00 0.00 1075.3
20260510050229 0 73 0.0 0.0 0.00 0.00 0.00 1075.3
20260510045936 0 69 0.0 0.0 0.00 0.00 0.00 1075.4
20260510045405 0 68 0.0 0.0 0.00 0.00 0.00 1075.4
20260510044633 0 65 0.0 0.0 0.00 0.00 0.00 1075.5
20260510044135 0 63 0.0 0.0 0.00 0.00 0.00 1075.5
20260510043634 0 63 0.0 0.0 0.00 0.00 0.00 1075.5
20260510043120 0 65 0.0 0.0 0.00 0.00 0.00 1075.5
20260510042618 0 70 0.0 0.0 0.00 0.00 0.00 1075.6
20260510042101 0 57 0.0 0.0 0.00 0.00 0.00 1075.6
20260510041827 0 65 0.0 0.0 0.00 0.00 0.00 1075.6
20260510041048 0 62 0.0 0.0 0.00 0.00 0.00 1075.7
20260510040539 0 62 0.0 0.0 0.00 0.00 0.00 1075.6
20260510040033 0 62 0.0 0.0 0.00 0.00 0.00 1075.7
20260510035529 0 113 0.0 0.0 0.00 0.00 0.00 1075.7
20260510035006 0 92 0.0 0.0 0.00 0.00 0.00 1075.8
20260510034448 0 65 0.0 0.0 0.00 0.00 0.00 1075.8
20260510033944 0 66 0.0 0.0 0.00 0.00 0.00 1075.9
20260510033436 0 67 0.0 0.0 0.00 0.00 0.00 1075.8
20260510032934 0 67 0.0 0.0 0.00 0.00 0.00 1075.8
20260510032427 0 73 0.0 0.0 0.00 0.00 0.00 1075.8
20260510032154 0 71 0.0 0.0 0.00 0.00 0.00 1075.9
20260510031421 0 63 0.0 0.0 0.00 0.00 0.00 1075.9
20260510030922 0 61 0.0 0.0 0.00 0.00 0.00 1076.0
20260510030422 0 81 0.0 0.0 0.00 0.00 0.00 1076.0
20260510025853 0 104 0.0 0.0 0.00 0.00 0.00 1076.1
20260510025336 0 117 0.0 0.0 0.00 0.00 0.00 1076.2
20260510024830 0 123 0.0 0.0 0.00 0.00 0.00 1076.4
20260510024322 0 125 0.0 0.0 0.00 0.00 0.00 1076.4
20260510023744 0 125 0.0 0.0 0.00 0.00 0.00 1076.4
20260509163059 0 62 0.0 0.0 0.00 0.00 0.00 1075.4
20260509162548 0 62 0.0 0.0 0.00 0.00 0.00 1075.4
20260509162038 0 62 0.0 0.0 0.00 0.00 0.00 1075.4
20260509161502 0 62 0.0 0.0 0.00 0.00 0.00 1075.5
20260509160947 0 62 0.0 0.0 0.00 0.00 0.00 1075.6
20260509160439 0 62 0.0 0.0 0.00 0.00 0.00 1075.6
20260509155852 0 62 0.0 0.0 0.00 0.00 0.00 1075.6
20260509155345 0 62 0.0 0.0 0.00 0.00 0.00 1075.7
20260509154802 0 62 0.0 0.0 0.00 0.00 0.00 1075.6
20260509154248 0 62 0.0 0.0 0.00 0.00 0.00 1075.7
20260509153748 0 62 0.0 0.0 0.00 0.00 0.00 1075.6
20260509153240 0 62 0.0 0.0 0.00 0.00 0.00 1075.7
20260509152648 0 68 0.0 0.0 0.00 0.00 0.00 1075.7
20260509152126 0 68 0.0 0.0 0.00 0.00 0.00 1075.7
20260509151546 0 68 0.0 0.0 0.00 0.00 0.00 1075.8
20260509151047 0 68 0.0 0.0 0.00 0.00 0.00 1075.8
20260509150542 0 68 0.0 0.0 0.00 0.00 0.00 1075.8
20260509145948 0 119 0.0 0.0 0.00 0.00 0.00 1075.7
20260509145446 0 121 0.0 0.0 0.00 0.00 0.00 1075.8
20260509144922 0 124 0.0 0.0 0.00 0.00 0.00 1075.8
20260509144351 0 124 0.0 0.0 0.00 0.00 0.00 1075.8
20260509143847 0 124 0.0 0.0 0.00 0.00 0.00 1075.8
20260509143618 0 124 0.0 0.0 0.00 0.00 0.00 1075.8
20260509142823 0 124 0.0 0.0 0.00 0.00 0.00 1075.8
20260509142527 0 124 0.0 0.0 0.00 0.00 0.00 1075.9
20260509141752 0 124 0.0 0.0 0.00 0.00 0.00 1075.8
20260509141254 0 124 0.0 0.0 0.00 0.00 0.00 1075.8
20260509140750 0 124 0.0 0.0 0.00 0.00 0.00 1075.9
20260509140251 0 125 0.0 0.0 0.00 0.00 0.00 1075.8
20260509135752 0 124 0.0 0.0 0.00 0.00 0.00 1075.9
20260509135455 0 124 0.0 0.0 0.00 0.00 0.00 1075.9
20260509134718 0 126 0.0 0.0 0.00 0.00 0.00 1075.9
20260509134154 0 127 0.0 0.0 0.00 0.00 0.00 1076.0
20260509133650 0 127 0.0 0.0 0.00 0.00 0.00 1075.9
20260509133146 0 127 0.0 0.0 0.00 0.00 0.00 1076.0
20260509132646 0 126 0.0 0.0 0.00 0.00 0.00 1076.0
20260509132143 0 126 0.0 0.0 0.00 0.00 0.00 1076.0
20260509131616 0 126 0.0 0.0 0.00 0.00 0.00 1076.0
20260509131319 0 126 0.0 0.0 0.00 0.00 0.00 1076.0
20260509130544 0 126 0.0 0.0 0.00 0.00 0.00 1076.1
20260509130018 0 126 0.0 0.0 0.00 0.00 0.00 1076.1
20260509125451 0 126 0.0 0.0 0.00 0.00 0.00 1076.1
20260509124951 0 127 0.0 0.0 0.00 0.00 0.00 1076.1
20260509124446 0 127 0.0 0.0 0.00 0.00 0.00 1076.1
20260509123948 0 116 0.0 0.0 0.00 0.00 0.00 1076.2
20260509123446 0 116 0.0 0.0 0.00 0.00 0.00 1076.1
20260509123204 0 116 0.0 0.0 0.00 0.00 0.00 1076.1
20260509122346 0 117 0.0 0.0 0.00 0.00 0.00 1076.1
20260509121804 0 117 0.0 0.0 0.00 0.00 0.00 1076.2
20260509121255 0 117 0.0 0.0 0.00 0.00 0.00 1076.1
20260509120753 0 123 0.0 0.0 0.00 0.00 0.00 1076.1
20260509120520 0 160 0.0 0.0 0.00 0.00 0.00 1076.1
20260509115742 0 160 0.0 0.0 0.00 0.00 0.00 1076.1
20260509115210 0 160 0.0 0.0 0.00 0.00 0.00 1076.0
20260509114648 0 160 0.0 0.0 0.00 0.00 0.00 1076.0
20260509114137 0 160 0.0 0.0 0.00 0.00 0.00 1076.0
20260509113636 0 160 0.0 0.0 0.00 0.00 0.00 1076.0
20260509113128 0 160 0.0 0.0 0.00 0.00 0.00 1076.0
20260509112628 0 160 0.0 0.0 0.00 0.00 0.00 1076.0
20260509112051 0 160 0.0 0.0 0.00 0.00 0.00 1076.0
20260509111543 0 160 0.0 0.0 0.00 0.00 0.00 1076.0
20260509111040 0 160 0.0 0.0 0.00 0.00 0.00 1076.0
20260509110452 0 160 0.0 0.0 0.00 0.00 0.00 1076.0
20260509105950 0 160 0.0 0.0 0.00 0.00 0.00 1075.9
20260509105708 0 160 0.0 0.0 0.00 0.00 0.00 1075.9
20260509104854 0 160 0.0 0.0 0.00 0.00 0.00 1076.0
20260509103828 0 160 0.0 0.0 0.00 0.00 0.00 1075.9
20260509103254 0 160 0.0 0.0 0.00 0.00 0.00 1076.0
20260509102748 0 160 0.0 0.0 0.00 0.00 0.00 1076.0
20260509102249 0 160 0.0 0.0 0.00 0.00 0.00 1076.0
20260509101728 0 160 0.0 0.0 0.00 0.00 0.00 1076.0
20260509101151 0 160 0.0 0.0 0.00 0.00 0.00 1075.9
20260509100648 0 160 0.0 0.0 0.00 0.00 0.00 1075.8
20260509100137 0 130 0.0 0.0 0.00 0.00 0.00 1075.9
20260509095633 0 127 0.0 0.0 0.00 0.00 0.00 1075.8
20260509095052 0 96 0.0 0.0 0.00 0.00 0.00 1075.8
20260509094535 0 133 0.0 0.0 0.00 0.00 0.00 1075.9
20260509094022 0 144 0.0 0.0 0.00 0.00 0.00 1075.9
20260509092914 0 144 0.0 0.0 0.00 0.00 0.00 1075.8
20260509092409 0 143 0.0 0.0 0.00 0.00 0.00 1075.8
20260509092140 0 129 0.0 0.0 0.00 0.00 0.00 1075.8
20260509091406 0 151 0.0 0.0 0.00 0.00 0.00 1075.8
20260509090852 0 153 0.0 0.0 0.00 0.00 0.00 1075.8
20260509090620 0 152 0.0 0.0 0.00 0.00 0.00 1075.8
20260509085848 0 152 0.0 0.0 0.00 0.00 0.00 1075.7
20260509085341 0 152 0.0 0.0 0.00 0.00 0.00 1075.7
20260509084831 0 152 0.0 0.0 0.00 0.00 0.00 1075.7
20260509084256 0 152 0.0 0.0 0.00 0.00 0.00 1075.7
20260509083748 0 150 0.0 0.0 0.00 0.00 0.00 1075.6
20260509083248 0 150 0.0 0.0 0.00 0.00 0.00 1075.6
20260509083015 0 150 0.0 0.0 0.00 0.00 0.00 1075.5
20260509082447 0 150 0.0 0.0 0.00 0.00 0.00 1075.4
20260509081656 0 161 0.0 0.0 0.00 0.00 0.00 1075.4
20260509081150 0 163 0.0 0.0 0.00 0.00 0.00 1075.3
20260509080643 0 163 0.0 0.0 0.00 0.00 0.00 1075.3
20260509080125 0 152 0.0 0.0 0.00 0.00 0.00 1075.3
20260509075610 0 149 0.0 0.0 0.00 0.00 0.00 1075.3
20260509075107 0 140 0.0 0.0 0.00 0.00 0.00 1075.3
20260509074555 0 150 0.0 0.0 0.00 0.00 0.00 1075.3
20260509074011 0 148 0.0 0.0 0.00 0.00 0.00 1075.3
20260509073509 0 105 0.0 0.0 0.00 0.00 0.00 1075.3
20260509073222 0 105 0.0 0.0 0.00 0.00 0.00 1075.3
20260509072442 0 109 0.0 0.0 0.00 0.00 0.00 1075.3
20260509071920 0 110 0.0 0.0 0.00 0.00 0.00 1075.2
20260509071349 0 104 0.0 0.0 0.00 0.00 0.00 1075.2
20260509070825 0 105 0.0 0.0 0.00 0.00 0.00 1075.2
20260509070319 0 141 0.0 0.0 0.00 0.00 0.00 1075.2
20260509065818 0 141 0.0 0.0 0.00 0.00 0.00 1075.2
20260509065306 0 139 0.0 0.0 0.00 0.00 0.00 1075.0
20260509064756 0 139 0.0 0.0 0.00 0.00 0.00 1075.0
20260509064202 0 122 0.0 0.0 0.00 0.00 0.00 1075.0
20260509063655 0 116 0.0 0.0 0.00 0.00 0.00 1075.0
20260509063136 0 150 0.0 0.0 0.00 0.00 0.00 1075.0
20260509062821 0 150 0.0 0.0 0.00 0.00 0.00 1075.0
20260509062050 0 147 0.0 0.0 0.00 0.00 0.00 1075.0
20260509061542 0 147 0.0 0.0 0.00 0.00 0.00 1075.0